Kenosha, WI

9:57 AM CST on January 16, 2018 (GMT -0600)
Kenosha Regional

Weather History for KENW - March, 2014

Change the Weather History Date:

Wednesday, March 26, 2014

  Actual Average Record
Temperature  
Mean Temperature 24 °F -  
Max Temperature 39 °F 46 °F 77 °F (2007)
Min Temperature 10 °F 28 °F 2 °F (1979)
Degree Days  
Heating Degree Days 42    
Moisture  
Dew Point 10 °F    
Average Humidity 50    
Maximum Humidity 77    
Minimum Humidity 33    
Precipitation  
Precipitation 0.00 in - - ()
Sea Level Pressure  
Sea Level Pressure 30.21 in    
Wind  
Wind Speed 5 mph (SSW)    
Max Wind Speed 18 mph    
Max Gust Speed 28 mph    
Visibility 10 miles    
Events      
Averages and records for this station are not official NWS values.
T = Trace of Precipitation, MM = Missing Value Source: NWS Daily Summary

Daily Weather History Graph

Daily Weather History Graph

Search for Another Location

Airport or City:

Trip Planner

Search our weather history database for the weather conditions in past years. The results will help you decide how hot, cold, wet, or windy it might be!

Date:

Astronomy

Mar. 26, 2014 Rise Set
Actual Time 6:44 AM CDT 7:10 PM CDT
Civil Twilight 6:16 AM CDT 7:39 PM CDT
Nautical Twilight 5:42 AM CDT 8:12 PM CDT
Astronomical Twilight 5:08 AM CDT 8:46 PM CDT
Moon 3:58 AM CDT (3/26) 2:44 PM CDT (3/26)
Length of Visible Light 13h 22m
Length of Day
12h 26m
Waning Crescent, 21% of the Moon is Illuminated
Mar 26
Waning Crescent
Mar 30
New
Apr 7
First Quarter
Apr 15
Full
Apr 22
Last Quarter

Hourly Weather History & Observations

Time (CDT) Temp. Windchill Dew Point Humidity Pressure Visibility Wind Dir Wind Speed Gust Speed Precip Events Conditions
12:53 AM 17.1 °F 11.7 °F 5.0 °F 59% 30.27 in 10.0 mi NNW 3.5 mph - N/A   Clear
1:53 AM 15.1 °F - 3.9 °F 61% 30.28 in 10.0 mi Calm Calm - N/A   Clear
2:53 AM 10.9 °F - 5.0 °F 77% 30.29 in 10.0 mi Calm Calm - N/A   Clear
3:53 AM 12.9 °F 6.9 °F 6.1 °F 74% 30.28 in 10.0 mi SW 3.5 mph - N/A   Clear
4:53 AM 12.0 °F - 6.1 °F 77% 30.29 in 10.0 mi Calm Calm - N/A   Clear
5:53 AM 12.9 °F - 6.1 °F 74% 30.30 in 10.0 mi Calm Calm - N/A   Clear
6:53 AM 12.9 °F - 6.1 °F 74% 30.32 in 10.0 mi Calm Calm - N/A   Clear
7:53 AM 18.0 °F 11.1 °F 8.1 °F 65% 30.33 in 10.0 mi SSW 4.6 mph - N/A   Clear
8:53 AM 21.9 °F 13.4 °F 7.0 °F 53% 30.34 in 10.0 mi SW 6.9 mph - N/A   Clear
9:53 AM 24.1 °F 19.7 °F 3.9 °F 42% 30.33 in 10.0 mi WSW 3.5 mph - N/A   Clear
10:53 AM 27.0 °F 18.7 °F 5.0 °F 39% 30.32 in 10.0 mi SSW 8.1 mph - N/A   Clear
11:53 AM 28.9 °F 22.8 °F 7.0 °F 40% 30.30 in 10.0 mi SW 5.8 mph - N/A   Clear
12:53 PM 30.9 °F - 8.1 °F 38% 30.26 in 10.0 mi North - - N/A   Scattered Clouds
1:53 PM 34.0 °F 25.5 °F 9.0 °F 35% 30.23 in 10.0 mi SSW 11.5 mph 16.1 mph N/A   Overcast
2:53 PM 35.1 °F 27.4 °F 8.1 °F 33% 30.19 in 10.0 mi SSW 10.4 mph - N/A   Scattered Clouds
3:53 PM 37.0 °F 31.0 °F 10.9 °F 34% 30.17 in 10.0 mi SSW 8.1 mph - N/A   Mostly Cloudy
4:53 PM 37.0 °F 28.5 °F 10.9 °F 34% 30.14 in 10.0 mi SSW 13.8 mph - N/A   Overcast
5:53 PM 37.0 °F 29.3 °F 12.9 °F 37% 30.11 in 10.0 mi SSW 11.5 mph - N/A   Overcast
6:53 PM 36.0 °F 28.5 °F 12.9 °F 39% 30.09 in 10.0 mi South 10.4 mph 20.7 mph N/A   Overcast
7:53 PM 36.0 °F 26.3 °F 17.1 °F 46% 30.07 in 10.0 mi South 16.1 mph - N/A   Overcast
8:53 PM 37.0 °F 27.7 °F 18.0 °F 46% 30.04 in 10.0 mi South 16.1 mph - N/A   Overcast
9:53 PM 37.0 °F 29.3 °F 17.1 °F 44% 30.02 in 10.0 mi South 11.5 mph 21.9 mph N/A   Overcast
10:53 PM 37.9 °F 29.6 °F 17.1 °F 43% 30.00 in 10.0 mi South 13.8 mph 24.2 mph N/A   Mostly Cloudy
11:53 PM 39.0 °F 29.6 °F 17.1 °F 41% 29.97 in 10.0 mi South 18.4 mph 27.6 mph N/A   Overcast